Location: Bishausen
(51.6334°N, 9.9631°E)
Time: 11:42:33
(UTC+00:00)

Meteor 1-21 - Pass Details

Date: 23 May 2024
Orbit: 844 x 886 km, 81.2° (Epoch: 18 June)

Event Time Altitude Azimuth Distance (km) Brightness Sun altitude
Exits shadow 00:04:42 26° 175° (S) 1,625 5.1 -17.0°
Maximum altitude 00:07:56 69° 98° (E) 930 4.4 -16.9°
Drops below altitude 10° 00:13:39 10° 17° (NNE) 2,536 8.0 -16.7°
Sets 00:16:07 0° 15° (NNE) 3,484 9.2 -16.6°
